Regional Weather Roundup
Issued by NWS

Home | Current Version | Previous Version | Graphics & Text | Print | Product List | Glossary On
Versions: 1 2 3 4 5 6 7 8 9 10 11 12 13 14 15 16 17 18 19 20 21 22 23 24 25 26 27 28 29 30 31 32 33 34 35 36 37 38 39 40 41 42 43 44 45 46 47 48 49 50
270
ASUS43 KLOT 260709
RWRIL

ILLINOIS REGIONAL WEATHER ROUNDUP
NATIONAL WEATHER SERVICE CHICAGO/ROMEOVILLE IL
200 AM CDT MON JUN 26 2017

NOTE: "FAIR" INDICATES FEW OR NO CLOUDS BELOW 12,000 FEET WITH NO
SIGNIFICANT WEATHER AND/OR OBSTRUCTIONS TO VISIBILITY.

* THESE STATIONS ARE NOT UNDER NWS QUALITY CONTROL. THEY ALSO MAY NOT
  REPORT WEATHER SUCH AS PRECIPITATION OR FOG.

ILZ001-002-007-009-015-016-024-260800-
NORTHWEST ILLINOIS

CITY           SKY/WX    TMP DP  RH WIND       PRES   REMARKS
MOLINE         CLEAR     54  48  80 SW3       30.15S
STERLING*      CLEAR     54  51  90 SW5       30.13F
SAVANNA*       CLEAR     56  49  76 NW5       30.12F
$$

ILZ003-004-008-010-011-017-018-260800-
NORTH CENTRAL ILLINOIS

CITY           SKY/WX    TMP DP  RH WIND       PRES   REMARKS
ROCKFORD       CLEAR     54  49  83 W5        30.11F
FREEPORT*      CLEAR     52  48  85 SW5       30.13F
ROCHELLE*      CLEAR     52  49  91 CALM      30.12F
DE KALB*       CLEAR     56  49  77 W8        30.11F
PERU*          CLEAR     53  50  87 W8        30.14R
$$

ILZ005-006-012>014-019>023-260800-
NORTHEAST ILLINOIS

CITY           SKY/WX    TMP DP  RH WIND       PRES   REMARKS
CHICAGO-OHARE  PTCLDY    57  49  74 CALM      30.09F
CHICAGO-MIDWAY PTCLDY    58  50  75 W6        30.09F
AURORA         PTCLDY    54  50  86 SW5       30.11F
LANSING*       CLEAR     55  48  77 CALM      30.11F
JOLIET*        CLEAR     56  51  81 CALM      30.11F
WAUKEGAN       CLEAR     54  52  93 W3        30.07F
DUPAGE AIRPORT CLEAR     55  51  86 W6        30.09F
WHEELING       PTCLDY    57  52  83 W3        30.10F
MORRIS*        CLEAR     53  49  87 W6        30.11S
ROMEOVILLE*    CLEAR     55  48  77 W6        30.11S
NORTHERLY ISL    N/A     60  48  64 CALM        N/A
$$

LMZ740>746-260800-
SOUTHERN LAKE MICHIGAN

STATION/POSITION SKY/WX   TEMP    WIND        PRES    VSBY  WAVE
                          AIR SEA DIR/SP/G                  HT/PER
                          (F)     (DEG/KT/KT) (MB)    (MI)  (FT/S)
SOUTHERN BUOY              60 61  320/ 17/ 21 1017.5F         3/ 5
WILMETTE HARBOR            60 64  280/ 10/ 14   N/A           1/ 3
HARRISON CRIB              61     280/  9/ 10   N/A
BURNHAM HARBOR             60                   N/A
CALUMET HARBOR                    230/  2/  3 1018.6F
BURNS HARBOR               63     290/ 11/ 14 1019.3S
MICHIGAN CITY              62     300/ 20/ 21   N/A
MICHIGAN CITY 6N           63 66  310/ 16/ 21   N/A           6/ 4
ST. JOSEPH                 63 69  310/ 19/ 25 1018.2          6/ 5
$$

ILZ025>027-034>036-040-047-049-050-058-095>099-260800-
WEST-CENTRAL ILLINOIS

CITY           SKY/WX    TMP DP  RH WIND       PRES   REMARKS
QUINCY         CLEAR     55  49  80 SW5       30.19S
GALESBURG*     PTCLDY    49  47  93 CALM      30.17F
MACOMB*        PTCLDY    52  48  87 W8        30.20S
JACKSONVILLE*  PTCLDY    54  48  79 W5        30.18S
PITTSFIELD*    PTCLDY    57  50  79 W3        30.20F
$$

ILZ028>032-037-038-041>044-048-051>054-059>061-260800-
CENTRAL ILLINOIS

CITY           SKY/WX    TMP DP  RH WIND       PRES   REMARKS
PONTIAC        CLEAR     55  52  91 W6        30.15S
BLOOMINGTON    CLEAR     53  48  83 SW6       30.16F
DECATUR        PTCLDY    59  48  67 CALM      30.17F
PEORIA         CLEAR     54  51  90 CALM      30.16S
LACON*         MOCLDY    55  53  95 CALM      30.14S
LINCOLN*       PTCLDY    54  50  86 CALM      30.17S
SPRINGFIELD    PTCLDY    54  49  83 SW5       30.17F
TAYLORVILLE    PTCLDY    53  49  87 CALM      30.18S
$$

ILZ033-039-045-046-055>057-062-063-260800-
EAST-CENTRAL ILLINOIS

CITY           SKY/WX    TMP DP  RH WIND       PRES   REMARKS
CHAMPAIGN        N/A    N/A N/A N/A MISG      30.16F
RANTOUL*       CLEAR     55  51  87 CALM      30.16S
MATTOON        PTCLDY    57  50  77 W3        30.16F
PARIS*         CLEAR     51  50  97 SW3       30.17S
$$

ILZ079-100>102-260800-
SOUTHWEST ILLINOIS

CITY           SKY/WX    TMP DP  RH WIND       PRES   REMARKS
ALTON          CLEAR     55  51  89 CALM      30.20S
BELLEVILLE     CLEAR     55  51  85 CALM      30.21S
CAHOKIA*       CLEAR     57  49  74 CALM      30.20S
SPARTA*        CLEAR     61  51  70 CALM      30.21S
$$

ILZ064>066-069>071-074>076-080>082-084>086-088>090-092>094-260800-
SOUTH-CENTRAL ILLINOIS

CITY           SKY/WX    TMP DP  RH WIND       PRES   REMARKS
CARBONDALE     CLOUDY    63  56  78 N3        30.19S
CAIRO*         CLOUDY    68  57  68 CALM      30.18F
EFFINGHAM*     CLEAR     55  51  87 CALM      30.19S
MARION         CLOUDY    66  55  68 CALM      30.20R
MT. VERNON     CLEAR     53  52  96 CALM      30.19S
CENTRALIA*     CLEAR     55  52  92 CALM      30.19S
SALEM*         CLEAR     57  50  78 CALM      30.19S
METROPOLIS*    CLOUDY    66  57  72 N3        30.19S
$$

ILZ067-068-072-073-078-083-087-091-260800-
SOUTHEAST ILLINOIS

CITY           SKY/WX    TMP DP  RH WIND       PRES   REMARKS
LAWRENCEVILLE  CLEAR     59  54  83 NW3       30.17F
FLORA*         CLEAR     55  51  85 SW3       30.19S
FAIRFIELD*     CLEAR     55  52  88 CALM      30.17F
HARRISBURG*    CLOUDY    64  57  79 CALM      30.18F
ROBINSON*      CLEAR     53  50  91 CALM      30.18S
CARMI*         CLEAR     57  55  95 CALM      30.18S
$$

ABBREVIATIONS USED IN REMARKS
   TC - TEMPERATURE IN CELSIUS
  WCI - WIND CHILL INDEX
   HX - HEAT INDEX
  VSB - VISIBILITY
$$





USA.gov is the U.S. government's official web portal to all federal, state and local government web resources and services.